Regional Weather Roundup
Issued by NWS

Home | Current Version | Previous Version | Text Only | Print | Product List | Glossary Off
Versions: 1 2 3 4 5 6 7 8 9 10 11 12 13 14 15 16 17 18 19 20 21 22 23 24 25 26 27 28 29 30 31 32 33 34 35 36 37 38 39 40 41 42 43 44 45 46 47 48 49 50

000
ASUS43 KLOT 030508
RWRIL

ILLINOIS REGIONAL WEATHER ROUNDUP
NATIONAL WEATHER SERVICE CHICAGO/ROMEOVILLE IL
1200 AM CDT TUE MAY 03 2016

NOTE: "FAIR" INDICATES FEW OR NO CLOUDS BELOW 12,000 FEET WITH NO
SIGNIFICANT WEATHER AND/OR OBSTRUCTIONS TO VISIBILITY.

* THESE STATIONS ARE NOT UNDER NWS QUALITY CONTROL. THEY ALSO MAY NOT
  REPORT WEATHER SUCH AS PRECIPITATION OR FOG.

ILZ001-002-007-009-015-016-024-030600-
NORTHWEST ILLINOIS

CITY           SKY/WX    TMP DP  RH WIND       PRES   REMARKS
MOLINE         PTCLDY    47  43  86 CALM      30.02S
STERLING*      PTCLDY    48  45  87 CALM      30.03S
SAVANNA*       MOCLDY    45  43  95 CALM      30.02S
$$

ILZ003-004-008-010-011-017-018-030600-
NORTH CENTRAL ILLINOIS

CITY           SKY/WX    TMP DP  RH WIND       PRES   REMARKS
ROCKFORD       CLEAR     44  38  79 CALM      30.03F
FREEPORT*      CLEAR     44  38  81 S3        30.04S
ROCHELLE*      CLEAR     44  40  88 CALM      30.02F
DE KALB*       CLEAR     47  33  59 CALM      30.01F
$$

ILZ005-006-012>014-019>023-030600-
NORTHEAST ILLINOIS

CITY           SKY/WX    TMP DP  RH WIND       PRES   REMARKS
CHICAGO-OHARE  CLEAR     44  35  70 NW3       29.99F
CHICAGO-MIDWAY PTCLDY    48  34  58 CALM      30.00F
AURORA         PTCLDY    40  37  89 W3        30.01F
LANSING*       CLEAR     44  38  78 CALM      30.00F
JOLIET*        PTCLDY    42  40  93 CALM      30.01S
WAUKEGAN       CLEAR     39  36  89 NW3       29.99F
DUPAGE AIRPORT CLEAR     41  32  70 CALM      30.00F
KANKAKEE*      CLOUDY    48  38  68 CALM      30.01F
WHEELING       CLEAR     43  36  76 CALM      30.01F
MORRIS*        PTCLDY    44  40  84 CALM      30.00S
ROMEOVILLE*    CLEAR     44  35  69 CALM      30.01S
NORTHERLY ISL    N/A     47  36  65 CALM        N/A
NORTHERLY ISL    N/A     47  36  65 CALM        N/A
$$

LMZ740>746-030600-
SOUTHERN LAKE MICHIGAN

STATION/POSITION SKY/WX   TEMP    WIND        PRES    VSBY  WAVE
                          AIR SEA DIR/SP/G                  HT/PER
                          (F)     (DEG/KT/KT) (MB)    (MI)  (FT/S)
SOUTHERN BUOY              42 41  330/  4/  4 1015.7F         1
HARRISON CRIB              47     330/  6/  6   N/A
BURNHAM HARBOR             47      CALM  /  3   N/A
CALUMET HARBOR             45     330/  2/  3 1015.7F
BURNS HARBOR               46     340/  4/  6 1016.6F
MICHIGAN CITY              45     250/  2/  2   N/A
ST. JOSEPH                 46 48                N/A           1/ 3
$$

ILZ025>027-034>036-040-047-049-050-058-095>099-030600-
WEST-CENTRAL ILLINOIS

CITY           SKY/WX    TMP DP  RH WIND       PRES   REMARKS
QUINCY         CLOUDY    48  46  93 W3        30.03F
GALESBURG*     CLOUDY    49  46  88 CALM      30.03R
MACOMB*        CLOUDY    50  48  92 NW7       30.05S
JACKSONVILLE*  CLOUDY    51  48  89 NW3       30.03S
PITTSFIELD*    CLOUDY    51  49  90 W3        30.04F
$$

ILZ028>032-037-038-041>044-048-051>054-059>061-030600-
CENTRAL ILLINOIS

CITY           SKY/WX    TMP DP  RH WIND       PRES   REMARKS
PONTIAC        CLEAR     44  42  94 CALM      30.02S
BLOOMINGTON    CLEAR     45  42  89 CALM      30.03R
DECATUR        CLOUDY    51  43  74 N5        30.02S
PEORIA         CLOUDY    49  44  83 NE3       30.02S
LACON*         PTCLDY    44  39  83 CALM      30.02S
LINCOLN*       CLOUDY    51  50  93 CALM      30.02S
SPRINGFIELD    CLOUDY    52  48  86 SW3       30.03R
TAYLORVILLE    CLOUDY    52  47  86 NW5       30.02S
$$

ILZ033-039-045-046-055>057-062-063-030600-
EAST-CENTRAL ILLINOIS

CITY           SKY/WX    TMP DP  RH WIND       PRES   REMARKS
CHAMPAIGN      CLEAR     45  43  93 N6        30.01R
RANTOUL*       MOCLDY    48  45  89 N5        30.01S
MATTOON        CLOUDY    52  47  83 NW6       29.99S
PARIS*         CLOUDY    51  50  95 CALM      30.00F
$$

ILZ079-100>102-030600-
SOUTHWEST ILLINOIS

CITY           SKY/WX    TMP DP  RH WIND       PRES   REMARKS
ALTON          CLOUDY    51  49  93 CALM      30.03F
CAHOKIA*       CLOUDY    55  49  80 CALM      30.03F
SPARTA*        CLOUDY    53  49  84 NW3       30.04S
$$

ILZ064>066-069>071-074>076-080>082-084>086-088>090-092>094-030600-
SOUTH-CENTRAL ILLINOIS

CITY           SKY/WX    TMP DP  RH WIND       PRES   REMARKS
CARBONDALE     CLOUDY    53  48  83 NW6       30.02F
CAIRO*         CLOUDY    56  49  79 N8        30.02S
EFFINGHAM*     CLOUDY    54  50  88 W7        30.02F
MARION         CLOUDY    55  50  82 NW3       30.02F
MT. VERNON     CLOUDY    54  46  76 CALM      30.02F
CENTRALIA*     CLOUDY    55  51  87 NW3       30.01F
SALEM*         CLOUDY    55  50  85 NW5       30.02S
METROPOLIS*    CLOUDY    55  53  91 CALM      30.01F
$$

ILZ067-068-072-073-078-083-087-091-030600-
SOUTHEAST ILLINOIS

CITY           SKY/WX    TMP DP  RH WIND       PRES   REMARKS
LAWRENCEVILLE  CLOUDY    54  51  90 CALM      29.99F
FLORA*         CLOUDY    55  51  86 NW6       30.01F
FAIRFIELD*     CLOUDY    54  50  85 CALM      30.00F
HARRISBURG*    CLOUDY    55  50  85 NW3       30.01F
ROBINSON*      CLOUDY    52  51  96 CALM      30.00F
CARMI*         CLOUDY    55  50  85 NW6       30.00S
$$

ABBREVIATIONS USED IN REMARKS
   TC - TEMPERATURE IN CELSIUS
  WCI - WIND CHILL INDEX
   HX - HEAT INDEX
  VSB - VISIBILITY
$$





USA.gov is the U.S. government's official web portal to all federal, state and local government web resources and services.